Other Public Products
Issued by NWS Grand Forks, ND

Home | Current Version | Previous Version | Graphics & Text | Print | Product List | Glossary On
Versions: 1 2 3 4 5 6 7 8 9 10 11 12 13 14 15 16 17 18 19 20 21 22 23 24 25 26 27 28 29 30 31 32 33 34 35 36 37 38 39 40 41 42 43 44 45 46 47 48 49 50
470
FPUS83 KFGF 201610
OPUFGF
PRAIRIE TO PINES WEATHER ROUNDUP
NATIONAL WEATHER SERVICE EASTERN NORTH DAKOTA/GRAND FORKS ND
1000 AM CST TUE FEB 20 2018

 **SATELLITE DATA USED TO AUGMENT SKY COVER AT AUTOMATED STATIONS**
 *****  WEATHER ACROSS EASTERN NORTH DAKOTA  *****

CITY           SKY/WX    TMP DP  RH WIND       PRES   REMARKS
GRAND FORKS    LGT SNOW   6   2  83 NW17      30.10F VSB 3/4 WCI -13
GRND FORKS AFB LGT SNOW   6   0  79 N15       30.10F FOG     WCI -12
GRND FORKS NWS   N/A      5   2  89 NW12      30.07F WCI -11
BUXTON           N/A      5   5  99 NW21        N/A  WCI -16
DEVILS LAKE    PTSUNNY    3   0  85 NW10      30.09S FOG     WCI -12
FARGO          LGT SNOW   7   2  80 N20       30.08R VSB 3/4 WCI -13
WAHPETON ARPT  CLOUDY     9   1  72 N16G25    30.04S WCI  -9
$$

 *****  WEATHER ACROSS CENTRAL AND WESTERN NORTH DAKOTA  *****

CITY           SKY/WX    TMP DP  RH WIND       PRES   REMARKS
JAMESTOWN      LGT SNOW   6   1  80 NW15      30.07F WCI -12
BISMARCK       FAIR       7   0  73 W10       30.14F WCI  -8
MINOT          FAIR       4  -3  73 SW10      30.09F WCI -11
MINOT AFB      FAIR       2  -5  72 W12       30.08F WCI -14
GARRISON         N/A      0  -6  76 W12       30.10F WCI -17
WILLISTON      CLOUDY     0  -6  76 W16       30.11F WCI -20
DICKINSON      CLOUDY    -2  -7  79 W13       30.05S HAZE    WCI -20
HETTINGER      PTSUNNY   -6 -11  79 W8        30.09S HAZE    WCI -21
$$

 *****  OTHER OBSERVATIONS NORTHEAST NORTH DAKOTA  *****

CITY           SKY/WX    TMP DP  RH WIND       PRES   REMARKS
WALHALLA       FAIR       7   7 100 NW8       30.10F FOG     WCI  -6
LANGDON        LGT SNOW   5   1  85 NW10      30.05S WCI -10
CAVALIER       LGT SNOW   5   1  85 NW7       30.11F WCI  -7
GRAFTON        FOG        5   1  85 NW10      30.14F VSB 1   WCI -10
CANDO          CLOUDY     3  -2  78 W12       30.10F WCI -13
FORT TOTTEN      N/A      6   0  78 NW6       29.95S WCI  -5
ROLLA          FAIR       1  -6  71 W6        30.05S WCI -10
RUGBY          FAIR       0  -6  78 W7        30.09F WCI -13
 ***** THE ABOVE OBSERVATIONS ARE NON NWS ARE NOT QUALITY
        CONTROLLED AND MAY MIS-REPORT RAIN FOR SNOW...
$$

 *****  OTHER OBSERVATIONS SOUTHEAST NORTH DAKOTA *****

CITY           SKY/WX    TMP DP  RH WIND       PRES   REMARKS
COOPERSTOWN    LGT SNOW   5   1  85 NW14      30.08S WCI -12
VALLEY CITY    LGT SNOW   5   1  85 NW16      30.08S WCI -14
OAKES            N/A      5   0  78 NW18G25   30.08R WCI -15
GWINNER          N/A      7   1  78 NW21      30.06S HAZE    WCI -13
SHEYENNE NWR     N/A      7   3  83 N14       29.95S WCI -10
BUFFALO          N/A      5   1  82 E17         N/A  WCI -14
WYNDMERE       NOT AVBL
 ***** THE ABOVE OBSERVATIONS ARE NON NWS ARE NOT QUALITY
       CONTROLLED AND MAY MIS-REPORT RAIN FOR SNOW...
$$

  *****  WEATHER ACROSS NORTHERN MINNESOTA  *****

CITY           SKY/WX    TMP DP  RH WIND       PRES   REMARKS
FLAG ISLAND    CLOUDY     3  -2  78 NW12      30.00F HAZE    WCI -13
WARROAD        LGT SNOW   3   0  85 NW6       30.01F WCI  -8
ROSEAU         LGT SNOW   5   0  78 N10       30.02F WCI -10
HALLOCK        LGT SNOW   5   1  85 NW9       30.10F WCI  -9
THF RVR FALLS  LGT SNOW   5   0  79 N14       30.02F WCI -12
HALSTAD        NOT AVBL
FOSSTON        LGT SNOW   3  -2  78 N14       29.99F WCI -15
BAUDETTE       LGT SNOW   4  -1  80 NW12      29.97S VSB 3/4 WCI -12
WASKISH        LGT SNOW   7   1  78 NW9       29.96R WCI  -7
CROOKSTON      LGT SNOW   5   1  85 N22       30.08R WCI -16
$$
  *****  WEATHER ACROSS CENTRAL AND WEST MINNESOTA  *****

CITY           SKY/WX    TMP DP  RH WIND       PRES   REMARKS
BEMIDJI        LGT SNOW   5   0  79 NW9       29.95R WCI  -9
PARK RAPIDS    LGT SNOW   7   1  76 N10       29.92S WCI  -8
WADENA         LGT SNOW   9   3  78 NW10      29.94F WCI  -6
DETROIT LAKES  CLOUDY     9   3  78 N15       29.98R HAZE    WCI  -8
MOORHEAD       MIX PCPN   5   0  78 N15       30.06R WCI -13
FERGUS FALLS   PTSUNNY    7   0  72 N20       30.00F HAZE    WCI -13
ELBOW LAKE     LGT SNOW   6   2  81 NW16      29.98F WCI -12
MORRIS MN      CLOUDY     9   1  72 NW18G28   29.99R HAZE    WCI -10
STAPLES        LGT SNOW   9   3  78 NW9       29.93S WCI  -5
WHEATON        CLOUDY     7   0  72 NW18G24   30.06R HAZE    WCI -12
$$
  *****  WEATHER ELSEWHERE ACROSS MINNESOTA  *****

CITY           SKY/WX    TMP DP  RH WIND       PRES   REMARKS
DULUTH         FRZ DRZL   8   4  83 NW12      29.85R WCI  -7
INTRNTL FALLS  SNOW       5   0  79 N9        29.93F VSB 1/2 WCI  -9
ELY            FLURRIES   1  -2  85 N3        29.87R
CLOQUET        LGT SNOW   9   3  78 NW9       29.88R WCI  -5
BRAINERD       LGT SNOW  10   2  69 N9        29.91S WCI  -3
HIBBING        LGT SNOW   4   0  83 NW10      29.89R FOG     WCI -11
ALEXANDRIA     LGT SNOW  10   4  76 NW9       29.92S WCI  -3
SAINT CLOUD    CLOUDY    13   7  77 N8        29.90S WCI   2
MINNEAPOLIS    FLURRIES  18  17  96 NW8       29.89F WCI   8
$$

  *****  WEATHER ACROSS SOUTH DAKOTA  *****

CITY           SKY/WX    TMP DP  RH WIND       PRES   REMARKS
SIOUX FALLS    PTSUNNY    7   0  73 NW20      30.06R WCI -13
BROOKINGS      FAIR       5  -1  76 NW16      30.02R WCI -14
WATERTOWN      CLOUDY     4  -1  80 NW15      30.01R WCI -14
HURON          CLOUDY     6   1  80 NW15      30.13R WCI -12
SISSETON         N/A      6   2  83 NW20      30.05R WCI -14
ABERDEEN       MIX PCPN   7   1  76 NW18      30.11R WCI -12
MITCHELL       CLOUDY     7   1  76 N20       30.12S WCI -13
PIERRE         CLOUDY     4   0  83 NW17      30.16R WCI -16
MOBRIDGE       MIX PCPN   8   0  69 NW13      30.09S WCI  -8
RAPID CITY     MIX PCPN  -4 -11  72 NW9       30.07R WCI -20
$$

  *****  SOME WEATHER IN NEARBY STATES *****

CITY           SKY/WX    TMP DP  RH WIND       PRES   REMARKS
GLASGOW MT     FAIR     -10 -13  86 W3        30.11S FOG
GREAT FALLS MT FAIR      -6 -15  65 SW16      30.01R WCI -28
CHEYENNE WY    FAIR      -2  -6  83 W6        29.82R WCI -14
SCOTTSBLUFF NE FAIR      -4 -11  72 NW6       30.04S WCI -16
OMAHA NE       CLOUDY    17  11  77 NW18      30.08R WCI   1
DES MOINES IA  FLURRIES  26  22  84 NW12      29.98R WCI  16
DAVENPORT IA   LGT RAIN  36  34  92 NW16G24   29.89R FOG
CHICAGO IL     CLOUDY    63  58  83 SW20G25   29.84S
EAU CLAIRE WI  CLOUDY    22  18  85 W6        29.83R WCI  14
LA CROSSE WI   CLOUDY    30  29  96 NW15      29.83R FOG     WCI  19
$$

  *****  SOME NATIONAL WEATHER *****

CITY           SKY/WX    TMP DP  RH WIND       PRES   REMARKS
LA GUARDIA NY  PTSUNNY   55  51  86 SW18G24   30.33S
RALEIGH NC     FOG       57  57 100 CALM      30.49R VSB 1/4
ATLANTA GA     FOG       64  64 100 S6        30.39S VSB 1
NEW ORLEANS LA PTSUNNY   78  71  79 SE16      30.18R
OKLAHOMA CITY  FRZ RAIN  30  29  96 N28G35    30.00R VSB 1   WCI  15
ALBUQUERQUE NM PTSUNNY   31  16  54 W10       29.99R WCI  22
SALT LAKE CITY LGT SNOW  22  17  81 S6        30.04R WCI  14
LOS ANGELES CA FAIR      46  18  32 NE6       30.15R
BOISE ID       FAIR      13   3  64 CALM      30.17R
SEATTLE WA     CLOUDY    30  19  63 E8        30.17R WCI  22
$$

*** WEATHER ACROSS MANITOBA...SASKATCHEWAN AND ONTARIO ***
                ***ONTARIO***

CITY           SKY/WX    TMP DP  RH WIND       PRES   REMARKS
GERALDTON      NOT AVBL
THUNDER BAY    NOT AVBL
SIOUX LOOKOUT  NOT AVBL
TORONTO        NOT AVBL
BIG TROUT LK   NOT AVBL
PICKLE LAKE    NOT AVBL
DRYDEN         NOT AVBL
KENORA         NOT AVBL
$$
                *** MANITOBA***

CITY           SKY/WX    TMP DP  RH WIND       PRES   REMARKS
BRANDON        NOT AVBL
DAUPHIN        NOT AVBL
ISLAND LAKE    NOT AVBL
PILOT MOUND    NOT AVBL
THE PAS        NOT AVBL
THOMPSON       NOT AVBL
WINNIPEG       NOT AVBL
$$
                ***SASKATCHEWAN***

CITY           SKY/WX    TMP DP  RH WIND       PRES   REMARKS
ESTEVAN        NOT AVBL
KINDERSLEY     NOT AVBL
LLOYDMINSTER   NOT AVBL
PRINCE ALBERT  NOT AVBL
REGINA         NOT AVBL
YORKTON        NOT AVBL
N. BATTLEFORD  NOT AVBL
LA RONGE       NOT AVBL
SASKATOON      NOT AVBL



USA.gov is the U.S. government's official web portal to all federal, state and local government web resources and services.